When you browse on this site, cookies collect data to enhance your experience and personalize the content and advertising you see.
Visit our Privacy Policy to learn more. By continuing to use the site, you agree to this use of cookies and data.
  • în România
  • Lista ţărilor
  • Pe 7 zile
  • Temperatura apei
  • Meteo pe hartă
  • Widget-uri
  • user-avatar
    Intrare

    Meteo pe oră la Gitega

    Astăzi, 26 Mai, Marţi

    Timp Temperatura Precipitaţii Vânt Presiune Umiditate
    00:00 +15°C° 0 mm 1 m/s 623 mmHg 92%
    01:00 +15°C° 0 mm 1 m/s 622 mmHg 92%
    02:00 +15°C° 0 mm 1 m/s 622 mmHg 92%
    03:00 +14°C° 0 mm 1 m/s 622 mmHg 92%
    04:00 +14°C° 0 mm 1 m/s 622 mmHg 92%
    05:00 +13°C° 0 mm 0 m/s 622 mmHg 92%
    06:00 +15°C° 0 mm 0 m/s 623 mmHg 87%
    07:00 +16°C° 0 mm 0 m/s 624 mmHg 83%
    08:00 +18°C° 0 mm 0 m/s 625 mmHg 78%
    09:00 +22°C° 0 mm 1 m/s 626 mmHg 72%
    10:00 +24°C° 0 mm 1 m/s 626 mmHg 66%
    11:00 +25°C° 0 mm 1 m/s 627 mmHg 60%
    12:00 +25°C° 0.1 mm 1 m/s 626 mmHg 60%
    13:00 +25°C° 0.1 mm 2 m/s 626 mmHg 60%
    14:00 +26°C° 0.1 mm 2 m/s 625 mmHg 60%
    15:00 +25°C° 0 mm 2 m/s 625 mmHg 65%
    16:00 +24°C° 0 mm 2 m/s 624 mmHg 69%
    17:00 +24°C° 0 mm 2 m/s 624 mmHg 74%
    18:00 +22°C° 0 mm 1 m/s 624 mmHg 79%
    19:00 +20°C° 0 mm 1 m/s 624 mmHg 85%
    20:00 +18°C° 0 mm 1 m/s 624 mmHg 90%
    21:00 +18°C° 0 mm 1 m/s 624 mmHg 91%
    22:00 +18°C° 0 mm 1 m/s 624 mmHg 92%
    23:00 +16°C° 0 mm 1 m/s 624 mmHg 92%

    Mâine, 27 Mai, Miercuri

    Timp Temperatura Precipitaţii Vânt Presiune Umiditate
    00:00 +16°C° 0 mm 1 m/s 623 mmHg 92%
    01:00 +16°C° 0 mm 1 m/s 623 mmHg 93%
    02:00 +16°C° 0 mm 1 m/s 623 mmHg 93%
    03:00 +15°C° 0 mm 1 m/s 623 mmHg 93%
    04:00 +15°C° 0 mm 1 m/s 623 mmHg 93%
    05:00 +15°C° 0 mm 1 m/s 623 mmHg 93%
    06:00 +18°C° 0 mm 1 m/s 624 mmHg 88%
    07:00 +19°C° 0 mm 1 m/s 625 mmHg 83%
    08:00 +21°C° 0 mm 1 m/s 626 mmHg 78%
    09:00 +22°C° 0 mm 1 m/s 626 mmHg 73%
    10:00 +24°C° 0 mm 2 m/s 627 mmHg 67%
    11:00 +25°C° 0 mm 3 m/s 627 mmHg 61%
    12:00 +25°C° 0.1 mm 3 m/s 626 mmHg 62%
    13:00 +26°C° 0.1 mm 3 m/s 626 mmHg 62%
    14:00 +26°C° 0.1 mm 3 m/s 625 mmHg 63%
    15:00 +25°C° 0.1 mm 3 m/s 625 mmHg 68%
    16:00 +24°C° 0.1 mm 3 m/s 624 mmHg 73%
    17:00 +23°C° 0.1 mm 2 m/s 624 mmHg 78%
    18:00 +21°C° 0 mm 2 m/s 624 mmHg 82%
    19:00 +20°C° 0 mm 1 m/s 624 mmHg 86%
    20:00 +18°C° 0 mm 1 m/s 624 mmHg 90%
    21:00 +18°C° 0 mm 1 m/s 624 mmHg 91%
    22:00 +18°C° 0 mm 1 m/s 624 mmHg 91%
    23:00 +16°C° 0 mm 1 m/s 624 mmHg 91%

    Poimâine, 28 Mai, Joi

    Timp Temperatura Precipitaţii Vânt Presiune Umiditate
    00:00 +16°C° 0 mm 1 m/s 624 mmHg 91%
    01:00 +16°C° 0 mm 1 m/s 623 mmHg 91%
    02:00 +16°C° 0 mm 1 m/s 623 mmHg 91%
    03:00 +15°C° 0 mm 1 m/s 623 mmHg 89%
    04:00 +15°C° 0 mm 1 m/s 623 mmHg 88%
    05:00 +15°C° 0 mm 1 m/s 623 mmHg 87%
    06:00 +18°C° 0 mm 1 m/s 624 mmHg 83%
    07:00 +19°C° 0 mm 1 m/s 625 mmHg 78%
    08:00 +19°C° 0 mm 0 m/s 626 mmHg 74%
    09:00 +22°C° 0 mm 1 m/s 626 mmHg 70%
    10:00 +22°C° 0 mm 3 m/s 626 mmHg 66%
    11:00 +25°C° 0 mm 4 m/s 626 mmHg 63%
    12:00 +25°C° 0.1 mm 4 m/s 626 mmHg 62%
    13:00 +25°C° 0.1 mm 4 m/s 625 mmHg 62%
    14:00 +25°C° 0.1 mm 4 m/s 625 mmHg 62%
    15:00 +25°C° 0 mm 3 m/s 624 mmHg 66%
    16:00 +24°C° 0 mm 3 m/s 624 mmHg 70%
    17:00 +23°C° 0 mm 2 m/s 623 mmHg 74%
    18:00 +20°C° 0 mm 2 m/s 623 mmHg 78%
    19:00 +20°C° 0 mm 1 m/s 623 mmHg 82%
    20:00 +18°C° 0 mm 1 m/s 623 mmHg 85%
    21:00 +18°C° 0 mm 1 m/s 623 mmHg 85%
    22:00 +16°C° 0 mm 1 m/s 623 mmHg 85%
    23:00 +16°C° 0 mm 1 m/s 623 mmHg 84%

    29 Mai, Vineri

    Timp Temperatura Precipitaţii Vânt Presiune Umiditate
    00:00 +16°C° 0 mm 1 m/s 623 mmHg 84%
    01:00 +16°C° 0 mm 1 m/s 623 mmHg 85%
    02:00 +15°C° 0 mm 1 m/s 622 mmHg 85%
    03:00 +15°C° 0 mm 1 m/s 622 mmHg 85%
    04:00 +15°C° 0 mm 1 m/s 622 mmHg 86%
    05:00 +14°C° 0 mm 0 m/s 623 mmHg 86%
    06:00 +15°C° 0 mm 0 m/s 624 mmHg 82%
    07:00 +17°C° 0 mm 0 m/s 625 mmHg 78%
    08:00 +19°C° 0 mm 0 m/s 626 mmHg 74%
    09:00 +22°C° 0 mm 1 m/s 626 mmHg 70%
    10:00 +23°C° 0 mm 2 m/s 626 mmHg 65%
    11:00 +25°C° 0 mm 3 m/s 626 mmHg 61%
    12:00 +25°C° 0 mm 3 m/s 626 mmHg 60%
    13:00 +25°C° 0 mm 3 m/s 625 mmHg 60%
    14:00 +25°C° 0 mm 3 m/s 624 mmHg 59%
    15:00 +24°C° 0.1 mm 3 m/s 624 mmHg 64%
    16:00 +24°C° 0.1 mm 3 m/s 624 mmHg 69%
    17:00 +23°C° 0.1 mm 2 m/s 623 mmHg 75%
    18:00 +20°C° 0 mm 2 m/s 623 mmHg 78%
    19:00 +19°C° 0 mm 1 m/s 623 mmHg 82%
    20:00 +18°C° 0 mm 1 m/s 623 mmHg 86%
    21:00 +16°C° 0 mm 1 m/s 623 mmHg 87%
    22:00 +16°C° 0 mm 1 m/s 623 mmHg 87%
    23:00 +16°C° 0 mm 1 m/s 623 mmHg 88%

    30 Mai, Sâmbătă

    Timp Temperatura Precipitaţii Vânt Presiune Umiditate
    00:00 +16°C° 0 mm 1 m/s 622 mmHg 88%
    01:00 +15°C° 0 mm 1 m/s 622 mmHg 88%
    02:00 +15°C° 0 mm 1 m/s 622 mmHg 88%
    03:00 +15°C° 0 mm 1 m/s 622 mmHg 87%
    04:00 +15°C° 0 mm 1 m/s 622 mmHg 87%
    05:00 +14°C° 0 mm 0 m/s 622 mmHg 87%
    06:00 +15°C° 0 mm 0 m/s 623 mmHg 82%
    07:00 +19°C° 0 mm 1 m/s 624 mmHg 77%
    08:00 +20°C° 0 mm 1 m/s 625 mmHg 73%
    09:00 +21°C° 0 mm 2 m/s 626 mmHg 68%
    10:00 +23°C° 0 mm 2 m/s 626 mmHg 63%
    11:00 +24°C° 0 mm 3 m/s 626 mmHg 59%
    12:00 +24°C° 0 mm 3 m/s 626 mmHg 58%
    13:00 +25°C° 0 mm 3 m/s 625 mmHg 57%
    14:00 +25°C° 0 mm 3 m/s 625 mmHg 57%
    15:00 +24°C° 0 mm 3 m/s 624 mmHg 61%
    16:00 +24°C° 0 mm 2 m/s 624 mmHg 65%
    17:00 +23°C° 0 mm 2 m/s 624 mmHg 69%
    18:00 +20°C° 0 mm 2 m/s 624 mmHg 73%
    19:00 +19°C° 0 mm 1 m/s 623 mmHg 78%
    20:00 +18°C° 0 mm 1 m/s 623 mmHg 82%
    21:00 +16°C° 0 mm 1 m/s 623 mmHg 83%
    22:00 +16°C° 0 mm 1 m/s 623 mmHg 84%
    23:00 +16°C° 0 mm 1 m/s 623 mmHg 84%

    31 Mai, Duminică

    Timp Temperatura Precipitaţii Vânt Presiune Umiditate
    00:00 +15°C° 0 mm 1 m/s 623 mmHg 85%
    01:00 +15°C° 0 mm 1 m/s 623 mmHg 85%
    02:00 +15°C° 0 mm 1 m/s 623 mmHg 86%
    03:00 +15°C° 0 mm 1 m/s 623 mmHg 86%
    04:00 +14°C° 0 mm 1 m/s 623 mmHg 86%
    05:00 +14°C° 0 mm 1 m/s 623 mmHg 86%
    06:00 +16°C° 0 mm 1 m/s 624 mmHg 82%
    07:00 +18°C° 0 mm 1 m/s 625 mmHg 77%
    08:00 +20°C° 0 mm 1 m/s 626 mmHg 73%
    09:00 +20°C° 0 mm 2 m/s 626 mmHg 68%
    10:00 +21°C° 0 mm 2 m/s 627 mmHg 63%
    11:00 +22°C° 0 mm 3 m/s 627 mmHg 58%
    12:00 +24°C° 0 mm 3 m/s 626 mmHg 56%
    13:00 +24°C° 0 mm 3 m/s 626 mmHg 55%
    14:00 +25°C° 0 mm 3 m/s 625 mmHg 53%
    15:00 +24°C° 0 mm 2 m/s 625 mmHg 57%
    16:00 +23°C° 0 mm 2 m/s 625 mmHg 61%
    17:00 +23°C° 0 mm 2 m/s 624 mmHg 65%
    18:00 +21°C° 0 mm 1 m/s 624 mmHg 70%
    19:00 +19°C° 0 mm 1 m/s 624 mmHg 75%
    20:00 +15°C° 0 mm 1 m/s 624 mmHg 79%
    21:00 +15°C° 0 mm 1 m/s 624 mmHg 80%
    22:00 +15°C° 0 mm 1 m/s 623 mmHg 81%
    23:00 +14°C° 0 mm 1 m/s 623 mmHg 82%
    Arată mai mult